| time (UTC) | temp F | wind direction | speed MPH | gust MPH | rain 1hr in | rain 24hr in | rain mn in | humidity % | barometer mb |
| 20260905234704 | 62 | 202 | 10.0 | 17.0 | 0.00 | 0.02 | 0.02 | 94 | 1014.5 |
| 20260905234203 | 61 | 278 | 6.0 | 15.0 | 0.00 | 0.02 | 0.02 | 94 | 1014.5 |
| 20260905233704 | 61 | 187 | 6.0 | 16.0 | 0.00 | 0.02 | 0.02 | 94 | 1014.6 |
| 20260905233204 | 61 | 182 | 9.0 | 15.0 | 0.00 | 0.02 | 0.02 | 94 | 1014.6 |
| 20260905232704 | 61 | 174 | 6.0 | 13.0 | 0.00 | 0.02 | 0.02 | 94 | 1014.7 |
| 20260905232204 | 61 | 174 | 8.0 | 14.0 | 0.00 | 0.02 | 0.02 | 94 | 1014.7 |
| 20260905230704 | 60 | 172 | 11.0 | 16.0 | 0.00 | 0.02 | 0.02 | 93 | 1014.9 |
| 20260905223704 | 59 | 164 | 9.0 | 17.0 | 0.00 | 0.02 | 0.02 | 93 | 1015.3 |
| 20260905223203 | 59 | 159 | 11.0 | 16.0 | 0.00 | 0.02 | 0.02 | 93 | 1015.3 |
| 20260905222704 | 59 | 357 | 13.0 | 17.0 | 0.00 | 0.02 | 0.02 | 92 | 1015.3 |
| 20260905222204 | 59 | 147 | 6.0 | 13.0 | 0.00 | 0.02 | 0.02 | 92 | 1015.3 |
| 20260905221704 | 59 | 205 | 5.0 | 14.0 | 0.00 | 0.02 | 0.02 | 92 | 1015.5 |
| 20260905221204 | 59 | 179 | 7.0 | 12.0 | 0.00 | 0.02 | 0.02 | 92 | 1015.5 |
| 20260905220704 | 59 | 179 | 3.0 | 16.0 | 0.00 | 0.02 | 0.02 | 92 | 1015.8 |
| 20260905215704 | 59 | 160 | 7.0 | 18.0 | 0.00 | 0.02 | 0.02 | 91 | 1015.7 |
| 20260905215203 | 59 | 174 | 5.0 | 15.0 | 0.00 | 0.02 | 0.02 | 91 | 1015.8 |
| 20260905214703 | 59 | 60 | 6.0 | 18.0 | 0.00 | 0.02 | 0.02 | 91 | 1015.8 |
| 20260905214204 | 59 | 152 | 6.0 | 14.0 | 0.00 | 0.02 | 0.02 | 91 | 1015.8 |
| 20260905213705 | 59 | 158 | 5.0 | 10.0 | 0.00 | 0.02 | 0.02 | 91 | 1016.0 |
| 20260905213204 | 59 | 172 | 6.0 | 13.0 | 0.00 | 0.02 | 0.02 | 91 | 1016.0 |
| 20260905212204 | 59 | 176 | 14.0 | 21.0 | 0.00 | 0.02 | 0.02 | 91 | 1016.0 |
| 20260905211704 | 59 | 173 | 11.0 | 17.0 | 0.00 | 0.02 | 0.02 | 91 | 1016.1 |
| 20260905211204 | 59 | 157 | 10.0 | 21.0 | 0.00 | 0.02 | 0.02 | 91 | 1016.1 |
| 20260905210704 | 59 | 176 | 7.0 | 13.0 | 0.00 | 0.02 | 0.02 | 91 | 1016.5 |
| 20260905210204 | 58 | 178 | 9.0 | 14.0 | 0.00 | 0.02 | 0.02 | 91 | 1016.5 |
| 20260905205704 | 58 | 160 | 10.0 | 17.0 | 0.00 | 0.02 | 0.02 | 91 | 1016.6 |
| 20260905205204 | 58 | 165 | 9.0 | 16.0 | 0.00 | 0.02 | 0.02 | 91 | 1016.5 |
| 20260905204703 | 58 | 168 | 10.0 | 16.0 | 0.00 | 0.02 | 0.02 | 90 | 1016.7 |
| 20260905204203 | 58 | 157 | 9.0 | 20.0 | 0.00 | 0.02 | 0.02 | 90 | 1016.6 |
| 20260905203704 | 58 | 186 | 9.0 | 18.0 | 0.00 | 0.02 | 0.02 | 90 | 1016.8 |
| 20260905203204 | 59 | 156 | 12.0 | 20.0 | 0.00 | 0.02 | 0.02 | 89 | 1016.8 |
| 20260905202704 | 59 | 169 | 9.0 | 18.0 | 0.00 | 0.02 | 0.02 | 89 | 1017.0 |
| 20260905202205 | 59 | 177 | 11.0 | 17.0 | 0.00 | 0.02 | 0.02 | 88 | 1017.1 |
| 20260905201204 | 59 | 154 | 11.0 | 21.0 | 0.00 | 0.02 | 0.02 | 88 | 1017.0 |
| 20260905200704 | 59 | 169 | 9.0 | 22.0 | 0.00 | 0.02 | 0.02 | 88 | 1017.0 |
| 20260905200204 | 59 | 169 | 8.0 | 16.0 | 0.00 | 0.02 | 0.02 | 87 | 1017.0 |
| 20260905195704 | 59 | 166 | 9.0 | 18.0 | 0.00 | 0.02 | 0.02 | 87 | 1017.0 |
| 20260905195203 | 59 | 178 | 10.0 | 20.0 | 0.00 | 0.02 | 0.02 | 86 | 1017.1 |
| 20260905194704 | 60 | 180 | 8.0 | 20.0 | 0.00 | 0.02 | 0.02 | 86 | 1017.1 |
| 20260905194203 | 60 | 176 | 11.0 | 22.0 | 0.00 | 0.02 | 0.02 | 85 | 1017.1 |
| 20260905193705 | 60 | 165 | 9.0 | 17.0 | 0.00 | 0.02 | 0.02 | 84 | 1017.2 |
| 20260905193203 | 60 | 176 | 9.0 | 21.0 | 0.00 | 0.02 | 0.02 | 84 | 1017.2 |
| 20260905192203 | 60 | 175 | 7.0 | 16.0 | 0.00 | 0.02 | 0.02 | 83 | 1017.2 |
| 20260905191704 | 60 | 183 | 10.0 | 18.0 | 0.00 | 0.02 | 0.02 | 83 | 1017.2 |
| 20260905190704 | 60 | 176 | 9.0 | 20.0 | 0.00 | 0.02 | 0.02 | 81 | 1017.3 |
| 20260905190203 | 60 | 188 | 6.0 | 20.0 | 0.00 | 0.02 | 0.02 | 81 | 1017.3 |
| 20260905185704 | 60 | 184 | 9.0 | 15.0 | 0.00 | 0.02 | 0.02 | 80 | 1017.3 |
| 20260905184704 | 60 | 167 | 6.0 | 10.0 | 0.00 | 0.02 | 0.02 | 80 | 1017.4 |
| 20260905184204 | 60 | 193 | 4.0 | 7.0 | 0.00 | 0.02 | 0.02 | 79 | 1017.6 |
| 20260905183704 | 60 | 134 | 6.0 | 12.0 | 0.00 | 0.02 | 0.02 | 79 | 1017.7 |
| 20260905183204 | 60 | 177 | 5.0 | 9.0 | 0.00 | 0.02 | 0.02 | 79 | 1017.7 |
| 20260905182704 | 60 | 146 | 4.0 | 8.0 | 0.00 | 0.02 | 0.02 | 79 | 1017.6 |
| 20260905182204 | 60 | 174 | 4.0 | 12.0 | 0.00 | 0.02 | 0.02 | 79 | 1017.7 |
| 20260905181203 | 60 | 185 | 6.0 | 10.0 | 0.00 | 0.02 | 0.02 | 78 | 1017.8 |
| 20260905180204 | 60 | 167 | 6.0 | 13.0 | 0.00 | 0.02 | 0.02 | 78 | 1017.8 |
| 20260905175704 | 60 | 181 | 6.0 | 13.0 | 0.00 | 0.02 | 0.02 | 79 | 1017.9 |
| 20260905174704 | 60 | 164 | 7.0 | 12.0 | 0.00 | 0.02 | 0.02 | 79 | 1018.1 |
| 20260905174204 | 61 | 163 | 4.0 | 12.0 | 0.00 | 0.02 | 0.02 | 79 | 1018.1 |
| 20260905173703 | 61 | 176 | 6.0 | 8.0 | 0.00 | 0.02 | 0.02 | 79 | 1018.2 |
| 20260905173204 | 61 | 167 | 5.0 | 13.0 | 0.00 | 0.02 | 0.02 | 79 | 1018.3 |
| 20260905172704 | 61 | 186 | 5.0 | 10.0 | 0.00 | 0.02 | 0.02 | 80 | 1018.3 |
| 20260905172204 | 61 | 179 | 6.0 | 12.0 | 0.00 | 0.02 | 0.02 | 80 | 1018.4 |
| 20260905171703 | 61 | 179 | 6.0 | 12.0 | 0.00 | 0.02 | 0.02 | 80 | 1018.4 |
| 20260905171204 | 61 | 185 | 5.0 | 10.0 | 0.00 | 0.02 | 0.02 | 80 | 1018.5 |
| 20260905170704 | 61 | 187 | 4.0 | 8.0 | 0.00 | 0.02 | 0.02 | 80 | 1018.5 |
| 20260905170204 | 61 | 185 | 5.0 | 10.0 | 0.00 | 0.02 | 0.02 | 80 | 1018.5 |
| 20260905165704 | 61 | 188 | 6.0 | 9.0 | 0.00 | 0.02 | 0.02 | 80 | 1018.7 |
| 20260905165204 | 61 | 174 | 5.0 | 10.0 | 0.00 | 0.02 | 0.02 | 81 | 1018.8 |
| 20260905164703 | 61 | 161 | 7.0 | 12.0 | 0.00 | 0.02 | 0.02 | 81 | 1018.8 |
| 20260905163204 | 61 | 186 | 6.0 | 12.0 | 0.00 | 0.02 | 0.02 | 80 | 1019.1 |
| 20260905162704 | 61 | 187 | 7.0 | 14.0 | 0.00 | 0.02 | 0.02 | 79 | 1019.1 |
| 20260905162203 | 61 | 182 | 5.0 | 10.0 | 0.00 | 0.02 | 0.02 | 79 | 1019.1 |
| 20260905161705 | 61 | 177 | 5.0 | 10.0 | 0.00 | 0.02 | 0.02 | 79 | 1019.1 |
| 20260905161203 | 61 | 186 | 7.0 | 12.0 | 0.00 | 0.02 | 0.02 | 79 | 1019.2 |
| 20260905160704 | 61 | 179 | 7.0 | 12.0 | 0.00 | 0.02 | 0.02 | 79 | 1019.3 |
| 20260905160204 | 61 | 188 | 8.0 | 14.0 | 0.00 | 0.02 | 0.02 | 78 | 1019.3 |
| 20260905155703 | 61 | 206 | 7.0 | 12.0 | 0.00 | 0.02 | 0.02 | 79 | 1019.4 |
| 20260905155204 | 61 | 179 | 7.0 | 12.0 | 0.00 | 0.02 | 0.02 | 79 | 1019.5 |
| 20260905154703 | 61 | 184 | 7.0 | 15.0 | 0.00 | 0.02 | 0.02 | 79 | 1019.5 |
| 20260905154204 | 61 | 193 | 5.0 | 10.0 | 0.00 | 0.02 | 0.02 | 80 | 1019.5 |
| 20260905153703 | 61 | 176 | 6.0 | 10.0 | 0.00 | 0.02 | 0.02 | 80 | 1019.5 |
| 20260905153204 | 61 | 177 | 5.0 | 10.0 | 0.00 | 0.02 | 0.02 | 81 | 1019.6 |
| 20260905152203 | 60 | 170 | 5.0 | 12.0 | 0.00 | 0.04 | 0.02 | 80 | 1019.7 |
| 20260905150704 | 60 | 169 | 3.0 | 7.0 | 0.00 | 0.04 | 0.02 | 81 | 1020.0 |
| 20260905141704 | 61 | 210 | 3.0 | 5.0 | 0.00 | 0.04 | 0.02 | 80 | 1020.6 |
| 20260905141203 | 61 | 235 | 6.0 | 8.0 | 0.00 | 0.04 | 0.02 | 80 | 1020.7 |
| 20260905140704 | 61 | 200 | 7.0 | 10.0 | 0.00 | 0.04 | 0.02 | 79 | 1020.8 |
| 20260905140204 | 61 | 218 | 5.0 | 8.0 | 0.00 | 0.04 | 0.02 | 80 | 1020.8 |
| 20260905135704 | 61 | 227 | 4.0 | 8.0 | 0.00 | 0.04 | 0.02 | 80 | 1020.8 |
| 20260905135204 | 61 | 265 | 4.0 | 7.0 | 0.00 | 0.04 | 0.02 | 80 | 1020.8 |
| 20260905134704 | 61 | 214 | 3.0 | 7.0 | 0.00 | 0.04 | 0.02 | 80 | 1020.9 |
| 20260905134203 | 60 | 188 | 5.0 | 7.0 | 0.00 | 0.04 | 0.02 | 80 | 1020.9 |
| 20260905133204 | 60 | 236 | 3.0 | 5.0 | 0.00 | 0.04 | 0.02 | 81 | 1021.0 |
| 20260905132705 | 59 | 224 | 5.0 | 8.0 | 0.00 | 0.04 | 0.02 | 81 | 1021.1 |
| 20260905132204 | 59 | 228 | 5.0 | 8.0 | 0.00 | 0.04 | 0.02 | 82 | 1021.3 |
| 20260905130703 | 59 | 212 | 5.0 | 8.0 | 0.00 | 0.04 | 0.02 | 83 | 1021.2 |
| 20260905130203 | 59 | 184 | 3.0 | 8.0 | 0.00 | 0.04 | 0.02 | 83 | 1021.2 |
| 20260905125704 | 59 | 202 | 4.0 | 7.0 | 0.00 | 0.04 | 0.02 | 83 | 1021.2 |
| 20260905124704 | 59 | 199 | 6.0 | 12.0 | 0.00 | 0.06 | 0.02 | 82 | 1021.3 |
| 20260905123704 | 59 | 201 | 5.0 | 9.0 | 0.00 | 0.06 | 0.02 | 81 | 1021.2 |
| 20260905123204 | 59 | 195 | 5.0 | 9.0 | 0.00 | 0.06 | 0.02 | 81 | 1021.2 |
| 20260905122704 | 59 | 205 | 6.0 | 10.0 | 0.00 | 0.06 | 0.02 | 81 | 1021.2 |
| 20260905122204 | 59 | 230 | 6.0 | 10.0 | 0.00 | 0.06 | 0.02 | 82 | 1021.3 |
| 20260905120704 | 59 | 206 | 4.0 | 10.0 | 0.00 | 0.09 | 0.02 | 83 | 1021.3 |
| 20260905120204 | 59 | 232 | 6.0 | 9.0 | 0.00 | 0.11 | 0.02 | 83 | 1021.3 |
| 20260905115704 | 59 | 236 | 3.0 | 5.0 | 0.00 | 0.11 | 0.02 | 84 | 1021.2 |
| 20260905115204 | 58 | 235 | 2.0 | 3.0 | 0.00 | 0.11 | 0.02 | 84 | 1021.3 |
| 20260905114703 | 57 | 222 | 3.0 | 8.0 | 0.00 | 0.13 | 0.02 | 83 | 1021.3 |
| 20260905114204 | 57 | 217 | 2.0 | 5.0 | 0.00 | 0.13 | 0.02 | 83 | 1021.4 |
| 20260905113704 | 57 | 232 | 3.0 | 8.0 | 0.00 | 0.13 | 0.02 | 83 | 1021.4 |
| 20260905113205 | 58 | 201 | 6.0 | 10.0 | 0.00 | 0.13 | 0.02 | 83 | 1021.3 |
| 20260905112704 | 58 | 192 | 4.0 | 6.0 | 0.00 | 0.13 | 0.02 | 84 | 1021.4 |
| 20260905112204 | 58 | 209 | 3.0 | 6.0 | 0.00 | 0.13 | 0.02 | 84 | 1021.3 |
| 20260905111704 | 58 | 231 | 4.0 | 8.0 | 0.00 | 0.13 | 0.02 | 85 | 1021.2 |
| 20260905111204 | 58 | 220 | 5.0 | 9.0 | 0.00 | 0.13 | 0.02 | 85 | 1021.2 |
| 20260905110704 | 58 | 196 | 5.0 | 9.0 | 0.00 | 0.13 | 0.02 | 84 | 1021.2 |
| 20260905110204 | 58 | 202 | 6.0 | 9.0 | 0.00 | 0.13 | 0.02 | 85 | 1021.0 |
| 20260905105704 | 58 | 196 | 5.0 | 9.0 | 0.00 | 0.13 | 0.02 | 85 | 1021.0 |
| 20260905105203 | 58 | 188 | 5.0 | 9.0 | 0.00 | 0.13 | 0.02 | 86 | 1020.9 |
| 20260905104204 | 58 | 202 | 6.0 | 12.0 | 0.00 | 0.13 | 0.02 | 86 | 1021.3 |
| 20260905103704 | 58 | 196 | 5.0 | 9.0 | 0.00 | 0.13 | 0.02 | 87 | 1021.2 |
| 20260905102704 | 58 | 207 | 5.0 | 10.0 | 0.00 | 0.13 | 0.02 | 87 | 1021.2 |
| 20260905102204 | 58 | 219 | 5.0 | 9.0 | 0.00 | 0.13 | 0.02 | 87 | 1021.2 |
| 20260905101704 | 58 | 245 | 5.0 | 9.0 | 0.00 | 0.13 | 0.02 | 87 | 1021.1 |
| 20260905101204 | 58 | 213 | 3.0 | 8.0 | 0.00 | 0.13 | 0.02 | 88 | 1021.0 |
| 20260905100703 | 57 | 248 | 5.0 | 7.0 | 0.00 | 0.13 | 0.02 | 88 | 1021.1 |
| 20260905100204 | 57 | 218 | 3.0 | 6.0 | 0.00 | 0.13 | 0.02 | 89 | 1020.8 |
| 20260905095704 | 57 | 203 | 5.0 | 8.0 | 0.00 | 0.13 | 0.02 | 90 | 1020.9 |
| 20260905095203 | 57 | 220 | 6.0 | 8.0 | 0.00 | 0.13 | 0.02 | 91 | 1020.9 |
| 20260905094704 | 57 | 203 | 6.0 | 8.0 | 0.00 | 0.13 | 0.02 | 91 | 1020.9 |
| 20260905094203 | 56 | 227 | 5.0 | 8.0 | 0.00 | 0.13 | 0.02 | 92 | 1021.0 |
| 20260905093703 | 56 | 215 | 4.0 | 7.0 | 0.00 | 0.13 | 0.02 | 93 | 1020.9 |
| 20260905093204 | 56 | 233 | 3.0 | 6.0 | 0.00 | 0.13 | 0.02 | 93 | 1020.9 |
| 20260905092704 | 56 | 220 | 4.0 | 6.0 | 0.00 | 0.13 | 0.02 | 93 | 1021.0 |
| 20260905092204 | 56 | 235 | 4.0 | 7.0 | 0.00 | 0.13 | 0.02 | 94 | 1021.0 |
| 20260905091204 | 55 | 215 | 3.0 | 5.0 | 0.00 | 0.13 | 0.02 | 94 | 1021.0 |
| 20260905090204 | 55 | 228 | 4.0 | 8.0 | 0.00 | 0.13 | 0.02 | 94 | 1020.7 |
| 20260905085704 | 55 | 208 | 4.0 | 6.0 | 0.00 | 0.13 | 0.02 | 94 | 1020.6 |
| 20260905085204 | 55 | 201 | 3.0 | 5.0 | 0.00 | 0.13 | 0.02 | 95 | 1020.7 |
| 20260905084204 | 54 | 226 | 4.0 | 7.0 | 0.00 | 0.13 | 0.02 | 95 | 1020.8 |
| 20260905083703 | 54 | 190 | 4.0 | 7.0 | 0.00 | 0.13 | 0.02 | 95 | 1020.7 |
| 20260905083204 | 54 | 209 | 4.0 | 7.0 | 0.00 | 0.13 | 0.02 | 95 | 1020.8 |
| 20260905082704 | 54 | 200 | 5.0 | 8.0 | 0.00 | 0.13 | 0.02 | 95 | 1020.6 |
| 20260905082204 | 54 | 231 | 6.0 | 10.0 | 0.00 | 0.13 | 0.02 | 95 | 1020.7 |
| 20260905081704 | 54 | 208 | 4.0 | 9.0 | 0.00 | 0.13 | 0.02 | 95 | 1020.6 |
| 20260905081204 | 54 | 205 | 5.0 | 8.0 | 0.00 | 0.13 | 0.02 | 95 | 1020.7 |
| 20260905080704 | 54 | 206 | 3.0 | 6.0 | 0.00 | 0.13 | 0.02 | 95 | 1020.5 |
| 20260905080204 | 54 | 209 | 3.0 | 5.0 | 0.00 | 0.13 | 0.02 | 95 | 1020.6 |
| 20260905075205 | 53 | 242 | 4.0 | 7.0 | 0.00 | 0.13 | 0.02 | 95 | 1020.4 |
| 20260905074704 | 53 | 228 | 2.0 | 7.0 | 0.00 | 0.13 | 0.02 | 95 | 1020.5 |
| 20260905074203 | 53 | 219 | 3.0 | 7.0 | 0.00 | 0.13 | 0.02 | 95 | 1020.3 |
| 20260905073704 | 53 | 221 | 6.0 | 12.0 | 0.00 | 0.13 | 0.02 | 95 | 1020.3 |
| 20260905072704 | 53 | 219 | 4.0 | 6.0 | 0.00 | 0.13 | 0.02 | 95 | 1020.1 |
| 20260905072204 | 53 | 223 | 3.0 | 6.0 | 0.00 | 0.13 | 0.02 | 95 | 1020.1 |
| 20260905071704 | 53 | 200 | 3.0 | 7.0 | 0.00 | 0.13 | 0.02 | 95 | 1020.0 |
| 20260905071204 | 53 | 224 | 3.0 | 6.0 | 0.00 | 0.13 | 0.02 | 95 | 1019.9 |
| 20260905070704 | 53 | 239 | 3.0 | 7.0 | 0.00 | 0.13 | 0.02 | 95 | 1019.9 |
| 20260905065704 | 53 | 220 | 3.0 | 5.0 | 0.00 | 0.13 | 0.02 | 95 | 1019.8 |
| 20260905064204 | 52 | 212 | 3.0 | 5.0 | 0.00 | 0.13 | 0.02 | 95 | 1019.7 |
| 20260905063704 | 52 | 234 | 2.0 | 3.0 | 0.00 | 0.13 | 0.02 | 95 | 1019.7 |
| 20260905063204 | 52 | 249 | 2.0 | 6.0 | 0.00 | 0.13 | 0.02 | 95 | 1019.6 |
| 20260905062703 | 52 | 218 | 3.0 | 6.0 | 0.00 | 0.13 | 0.02 | 95 | 1019.6 |
| 20260905062204 | 52 | 200 | 3.0 | 5.0 | 0.00 | 0.13 | 0.02 | 95 | 1019.5 |
| 20260905061704 | 52 | 222 | 2.0 | 6.0 | 0.00 | 0.13 | 0.02 | 95 | 1019.6 |
| 20260905053204 | 51 | 201 | 3.0 | 5.0 | 0.00 | 0.13 | 0.02 | 95 | 1019.6 |
| 20260905052703 | 51 | 216 | 2.0 | 3.0 | 0.00 | 0.13 | 0.02 | 95 | 1019.6 |
| 20260905051704 | 52 | 186 | 2.0 | 3.0 | 0.00 | 0.13 | 0.02 | 95 | 1019.3 |
| 20260905051204 | 52 | 178 | 1.0 | 3.0 | 0.00 | 0.13 | 0.02 | 96 | 1019.3 |
| 20260905050704 | 52 | 216 | 2.0 | 3.0 | 0.00 | 0.13 | 0.02 | 96 | 1019.4 |
| 20260905050204 | 52 | 239 | 3.0 | 6.0 | 0.00 | 0.13 | 0.02 | 96 | 1019.4 |
| 20260905045704 | 52 | 256 | 3.0 | 6.0 | 0.00 | 0.13 | 0.02 | 96 | 1019.3 |
| 20260905045204 | 52 | 252 | 2.0 | 3.0 | 0.00 | 0.13 | 0.02 | 96 | 1019.3 |
| 20260905044704 | 52 | 219 | 2.0 | 5.0 | 0.00 | 0.13 | 0.02 | 95 | 1019.2 |
| 20260905044204 | 52 | 209 | 3.0 | 6.0 | 0.00 | 0.13 | 0.02 | 95 | 1019.3 |
| 20260905043704 | 52 | 209 | 2.0 | 5.0 | 0.00 | 0.13 | 0.02 | 95 | 1019.2 |
| 20260905043204 | 52 | 213 | 2.0 | 3.0 | 0.00 | 0.13 | 0.02 | 95 | 1019.2 |
| 20260905042704 | 52 | 216 | 2.0 | 3.0 | 0.00 | 0.13 | 0.02 | 95 | 1019.3 |
| 20260905042204 | 52 | 219 | 2.0 | 3.0 | 0.00 | 0.13 | 0.02 | 95 | 1019.4 |
| 20260905041204 | 53 | 261 | 3.0 | 7.0 | 0.01 | 0.13 | 0.02 | 95 | 1019.3 |
| 20260905040703 | 53 | 238 | 3.0 | 6.0 | 0.01 | 0.13 | 0.02 | 95 | 1019.3 |
| 20260905040204 | 53 | 252 | 3.0 | 8.0 | 0.01 | 0.13 | 0.02 | 95 | 1019.3 |
| 20260905035704 | 52 | 245 | 5.0 | 8.0 | 0.01 | 0.13 | 0.02 | 95 | 1019.4 |
| 20260905035205 | 52 | 231 | 2.0 | 3.0 | 0.01 | 0.13 | 0.02 | 95 | 1019.3 |
| 20260905034704 | 52 | 250 | 1.0 | 2.0 | 0.01 | 0.13 | 0.02 | 95 | 1019.1 |
| 20260905034204 | 53 | 249 | 2.0 | 5.0 | 0.01 | 0.13 | 0.02 | 95 | 1019.1 |
| 20260905033704 | 53 | 258 | 3.0 | 3.0 | 0.01 | 0.13 | 0.02 | 95 | 1019.1 |
| 20260905033205 | 53 | 247 | 3.0 | 7.0 | 0.01 | 0.13 | 0.02 | 95 | 1019.1 |
| 20260905032704 | 53 | 274 | 3.0 | 7.0 | 0.01 | 0.13 | 0.02 | 95 | 1019.2 |
| 20260905032204 | 53 | 257 | 3.0 | 9.0 | 0.01 | 0.13 | 0.02 | 95 | 1019.2 |
| 20260905031704 | 53 | 258 | 5.0 | 8.0 | 0.00 | 0.13 | 0.02 | 95 | 1019.3 |
| 20260905030704 | 53 | 266 | 3.0 | 6.0 | 0.00 | 0.13 | 0.02 | 95 | 1019.2 |
| 20260905030204 | 53 | 259 | 2.0 | 5.0 | 0.00 | 0.13 | 0.02 | 95 | 1019.0 |
| 20260905025204 | 53 | 246 | 3.0 | 5.0 | 0.00 | 0.13 | 0.02 | 95 | 1019.1 |
| 20260905024703 | 53 | 241 | 3.0 | 5.0 | 0.00 | 0.13 | 0.02 | 95 | 1019.0 |
| 20260905024204 | 53 | 241 | 3.0 | 5.0 | 0.00 | 0.13 | 0.02 | 95 | 1019.1 |
| 20260905023703 | 53 | 239 | 2.0 | 3.0 | 0.00 | 0.13 | 0.02 | 95 | 1018.9 |
| 20260905023204 | 53 | 216 | 2.0 | 3.0 | 0.01 | 0.13 | 0.02 | 95 | 1018.9 |
| 20260905022704 | 53 | 234 | 2.0 | 7.0 | 0.01 | 0.13 | 0.02 | 95 | 1018.9 |
| 20260905022204 | 53 | 272 | 3.0 | 8.0 | 0.01 | 0.13 | 0.02 | 95 | 1018.8 |
| 20260905021704 | 53 | 217 | 2.0 | 3.0 | 0.01 | 0.13 | 0.02 | 95 | 1018.7 |
| 20260905021204 | 53 | 227 | 3.0 | 3.0 | 0.01 | 0.13 | 0.02 | 95 | 1018.7 |
| 20260905020203 | 53 | 246 | 3.0 | 6.0 | 0.02 | 0.13 | 0.02 | 95 | 1018.7 |
| 20260905015704 | 53 | 251 | 3.0 | 7.0 | 0.02 | 0.13 | 0.02 | 95 | 1018.7 |
| 20260905015204 | 53 | 253 | 3.0 | 5.0 | 0.02 | 0.13 | 0.02 | 95 | 1018.6 |
| 20260905014704 | 53 | 252 | 2.0 | 6.0 | 0.02 | 0.13 | 0.02 | 94 | 1018.6 |
| 20260905014204 | 53 | 260 | 3.0 | 7.0 | 0.02 | 0.13 | 0.02 | 94 | 1018.6 |
| 20260905013704 | 53 | 251 | 3.0 | 6.0 | 0.02 | 0.13 | 0.02 | 94 | 1018.6 |
| 20260905013205 | 53 | 248 | 4.0 | 8.0 | 0.01 | 0.13 | 0.01 | 94 | 1018.5 |
| 20260905012705 | 53 | 239 | 3.0 | 7.0 | 0.01 | 0.13 | 0.01 | 94 | 1018.5 |
| 20260905012204 | 53 | 249 | 3.0 | 7.0 | 0.01 | 0.13 | 0.01 | 94 | 1018.5 |
| 20260905011704 | 53 | 256 | 3.0 | 7.0 | 0.01 | 0.13 | 0.01 | 94 | 1018.3 |
| 20260905011204 | 53 | 247 | 5.0 | 9.0 | 0.01 | 0.13 | 0.01 | 94 | 1018.4 |
| 20260905010703 | 53 | 247 | 7.0 | 10.0 | 0.01 | 0.13 | 0.01 | 94 | 1018.5 |
| 20260905005703 | 52 | 241 | 3.0 | 7.0 | 0.00 | 0.12 | 0.00 | 94 | 1018.3 |
| 20260905005203 | 52 | 225 | 2.0 | 3.0 | 0.00 | 0.12 | 0.00 | 94 | 1018.3 |
| 20260905004703 | 52 | 253 | 3.0 | 8.0 | 0.00 | 0.12 | 0.00 | 94 | 1018.2 |
| 20260905004203 | 52 | 250 | 3.0 | 5.0 | 0.00 | 0.12 | 0.00 | 94 | 1018.1 |
| 20260905003703 | 52 | 258 | 3.0 | 3.0 | 0.00 | 0.12 | 0.00 | 93 | 1018.1 |
| 20260905003204 | 52 | 248 | 3.0 | 3.0 | 0.00 | 0.12 | 0.00 | 93 | 1018.1 |
| 20260905002704 | 52 | 252 | 3.0 | 6.0 | 0.00 | 0.12 | 0.00 | 93 | 1018.1 |
| 20260905002204 | 52 | 250 | 2.0 | 3.0 | 0.00 | 0.12 | 0.00 | 93 | 1018.1 |
| 20260905001704 | 52 | 246 | 2.0 | 3.0 | 0.00 | 0.12 | 0.00 | 93 | 1018.0 |
| 20260905001203 | 52 | 246 | 1.0 | 3.0 | 0.00 | 0.12 | 0.00 | 93 | 1018.1 |
| 20260905000204 | 53 | 231 | 1.0 | 3.0 | 0.00 | 0.12 | 0.00 | 93 | 1018.0 |
| 20260904235705 | 53 | 242 | 1.0 | 3.0 | 0.00 | 0.12 | 0.00 | 93 | 1018.0 |
| 20260904235204 | 53 | 248 | 3.0 | 3.0 | 0.00 | 0.12 | 0.00 | 93 | 1018.1 |